Vorticity
nan nan nan nan nan nan nan nan nan nan nan nan nan nan nan nan nan nan nan nan nan nan nan nan nan nan nan nan nan nan nan nan nan nan nan nan nan nan nan nan nan nan nan
nan 9 8 8 9 8 7 9 9 8 9 9 9 9 9 9 9 8 7 8 8 7 7 8 8 8 9 8 8 8 9 8 9 9 9 9 9 9 9 8 8 10 nan
nan 9 9 8 8 8 8 8 9 8 9 9 9 9 9 9 8 9 9 9 9 8 8 7 9 7 7 8 9 8 8 9 9 10 9 8 9 9 9 9 8 10 nan
nan 9 9 10 8 8 9 8 9 8 8 9 8 8 9 9 9 9 9 8 9 9 9 8 10 9 7 8 9 9 9 9 9 8 9 9 9 8 8 9 9 11 nan
nan 9 10 9 9 9 9 9 9 9 8 9 8 8 9 8 9 11 9 9 8 8 8 9 10 10 8 6 6 10 9 8 9 9 9 9 9 10 9 8 9 8 nan
nan 8 9 10 10 9 10 10 9 9 9 10 9 10 6 9 15 11 6 7 10 9 8 10 12 10 11 12 6 7 7 5 8 8 9 9 8 9 10 9 8 7 nan
nan 10 10 10 9 9 9 9 9 9 9 9 9 10 9 11 16 12 4 5 10 10 10 10 6 10 14 12 13 10 11 6 6 7 7 8 10 11 8 9 9 9 nan
nan 7 10 11 9 9 9 9 8 10 8 8 11 9 8 13 15 12 7 3 9 11 12 10 9 9 11 11 11 11 10 11 8 8 10 9 10 11 8 9 10 9 nan
nan 11 11 10 10 9 9 8 8 9 10 9 10 12 9 12 14 9 7 6 10 12 11 10 9 9 15 12 7 9 10 10 12 11 8 9 12 10 7 8 10 8 nan
nan 12 9 10 10 9 10 9 8 9 10 11 12 13 10 11 13 13 3 5 10 10 11 14 11 12 15 7 5 9 8 12 10 9 10 11 12 13 12 5 8 9 nan
nan 11 11 12 11 9 9 12 11 11 11 11 10 11 13 11 14 15 4 2 11 10 10 9 15 17 12 9 7 9 11 12 11 9 11 10 11 10 11 12 10 10 nan
nan 14 13 12 10 13 11 9 12 13 11 8 9 9 12 13 18 22 12 3 5 9 9 9 20 18 12 9 8 11 11 5 10 11 10 10 9 11 11 12 12 10 nan
nan 13 15 14 11 11 13 10 9 6 8 10 10 8 10 14 20 20 10 11 9 6 15 18 16 12 8 12 13 10 4 5 9 9 9 10 10 11 10 11 11 11 nan
nan 12 13 14 14 12 14 11 6 12 13 12 9 9 10 12 11 12 12 10 11 9 16 14 10 10 8 9 11 11 10 11 10 10 10 10 11 10 9 10 11 10 nan
nan 16 13 15 16 9 10 19 20 18 18 17 19 18 12 12 17 18 21 14 10 8 6 9 10 9 9 8 9 12 11 12 10 11 11 10 9 9 10 10 10 10 nan
nan 15 14 12 12 14 8 4 23 28 20 20 18 10 13 17 8 10 11 12 18 13 3 10 10 9 9 9 9 10 11 10 10 10 9 10 10 10 10 10 10 10 nan
nan 10 14 15 13 10 9 9 2 12 20 10 4 8 17 15 8 11 6 11 3 -1 6 10 11 9 10 10 10 10 11 11 11 10 10 10 11 12 11 9 9 11 nan
nan 12 11 12 13 13 12 10 10 13 4 1 5 16 13 4 13 17 10 4 4 9 16 11 10 10 11 12 11 9 10 12 12 12 12 12 11 10 10 11 10 10 nan
nan 15 13 11 12 14 11 8 9 7 7 5 8 13 16 21 19 8 -1 5 10 9 10 11 11 12 11 11 11 12 13 11 11 11 12 12 11 10 10 11 11 11 nan
nan 13 16 10 9 8 11 16 11 12 9 15 14 9 9 9 10 7 6 13 11 11 11 12 10 11 12 12 12 12 11 11 11 11 11 10 10 11 11 10 10 10 nan
nan 12 11 12 13 13 13 11 10 9 13 11 13 17 17 11 12 9 8 10 11 11 9 10 12 11 12 12 11 11 10 10 10 10 11 11 11 10 9 11 11 10 nan
nan 13 11 12 11 13 14 14 16 9 10 13 11 12 14 12 11 10 10 11 11 11 12 12 12 12 12 10 9 10 10 9 9 10 11 12 12 11 11 10 10 10 nan
nan 12 13 14 13 12 9 10 13 18 14 11 12 11 8 11 12 11 10 10 11 11 12 12 12 11 10 11 11 11 11 11 11 11 12 12 11 10 10 10 10 10 nan
nan 14 11 9 13 12 11 12 10 11 11 11 12 12 12 11 10 10 10 11 11 11 12 12 14 11 8 10 10 10 10 13 14 16 13 10 10 10 10 11 11 10 nan
nan 11 12 14 13 11 11 9 8 10 13 14 11 10 11 15 14 12 11 11 12 12 11 9 11 14 14 10 10 10 12 12 12 12 13 12 12 10 9 11 11 10 nan
nan nan nan nan nan nan nan nan nan nan nan nan nan nan nan nan nan nan nan nan nan nan nan nan nan nan nan nan nan nan nan nan nan nan nan nan nan nan nan nan nan nan nan
CAPE
806 787 762 743 753 671 416 434 414 477 551 523 742 775 544 161 5 2 0 0 0 0 0 0 0 0 0 0 0 0 0 0 0 2 0 0 0 11 2 0 2 12 0
849 969 912 824 801 755 602 583 557 465 399 464 555 673 536 266 80 37 21 14 0 0 0 0 0 0 0 0 0 0 0 0 0 42 1 0 2 0 0 0 0 0 0
605 975 1009 923 848 842 774 777 664 581 354 356 490 557 431 268 85 99 87 61 11 0 0 0 0 0 0 0 0 0 0 0 0 0 10 0 8 3 2 0 4 0 1
516 768 922 1009 977 1019 1020 981 835 796 422 409 415 577 462 294 196 121 130 110 70 41 11 0 0 0 12 0 0 0 0 2 0 7 17 23 20 29 3 0 2 0 0
637 725 879 900 932 984 1068 1158 1190 1115 829 485 490 533 541 410 278 215 140 120 128 100 103 61 4 0 0 0 0 0 0 0 1 14 6 0 9 9 5 0 0 0 0
789 859 971 1067 1067 1080 1059 1032 1123 1280 1259 742 600 588 604 581 352 132 182 179 138 140 136 94 71 36 3 0 0 0 0 0 13 18 13 23 55 24 0 5 0 5 0
955 1024 1164 1236 1308 1353 1365 1271 1141 1171 1313 1141 916 784 725 753 263 118 133 330 230 188 204 144 92 113 11 104 1 0 0 0 1 17 32 49 103 99 23 0 0 0 0
1148 1186 1428 1503 1490 1536 1580 1529 1424 1303 1282 1378 1187 1066 957 915 232 87 113 466 421 323 206 176 300 252 88 92 148 0 0 1 6 41 69 116 83 17 21 18 0 0 0
1409 1422 1598 1730 1716 1732 1822 1853 1759 1588 1442 1466 1381 1181 1110 1125 259 77 19 390 332 294 200 213 177 147 100 0 3 24 5 0 0 0 0 0 0 0 0 0 4 3 0
1727 1746 1802 1797 1714 1682 1810 1990 2053 1985 1835 1685 1730 1499 1150 1313 170 6 26 471 336 349 348 215 74 207 0 0 96 0 0 0 3 4 12 3 0 0 0 0 3 0 0
1655 1882 1951 1977 1949 1817 1792 1859 1951 2153 2155 1954 1861 1696 1426 1245 850 0 0 584 535 442 320 280 142 0 0 0 1 1 2 2 0 0 0 0 0 0 0 0 0 0 0
1586 1821 1962 2118 2202 2159 2162 2125 2098 2180 2296 2352 2208 1977 1633 1541 946 1 0 453 434 470 370 397 146 0 0 0 0 0 0 0 0 0 0 0 0 0 0 0 0 0 0
1005 1563 1973 2142 2369 2395 2393 2246 2213 2332 2434 2426 2332 2210 2114 1783 196 1 0 3 18 365 188 104 5 0 0 0 0 0 0 0 0 0 0 0 0 0 0 0 0 0 0
715 963 1301 1870 2223 2457 2384 2320 2271 2381 2444 2443 2461 2315 2088 467 63 0 0 0 1 0 0 0 0 0 0 0 0 1 0 0 0 0 0 0 0 0 0 0 0 0 0
242 336 803 1226 1493 2235 1279 1345 2358 2369 2350 2446 2399 2233 1270 268 2 1 2 1 1 0 0 1 1 0 0 0 0 1 1 1 0 0 0 0 0 0 0 0 0 0 0
1127 1184 771 980 501 12 25 0 1 524 1315 1123 566 317 92 1 1 0 12 0 1 0 0 0 0 0 0 0 0 0 0 0 0 0 0 0 0 0 0 0 0 0 0
210 291 162 126 140 152 317 171 0 0 2 2 6 2 0 0 1 0 0 0 2 0 0 0 0 0 0 0 0 0 0 0 0 0 0 0 0 0 0 0 0 0 0
0 85 207 130 351 352 459 187 11 6 54 0 1 0 1 1 1 2 1 1 0 0 0 0 0 0 0 0 0 0 0 0 0 0 0 0 0 0 0 0 0 0 0
0 15 326 420 225 106 53 2 1 4 3 2 5 2 1 1 1 1 1 0 2 1 0 0 0 0 0 0 0 0 0 0 0 0 0 0 0 0 0 0 0 0 0
0 25 72 1 0 4 0 1 1 1 2 0 1 1 2 0 0 0 0 2 2 0 0 0 0 0 0 0 0 0 0 0 0 0 0 0 0 0 0 0 0 0 0
76 6 0 2 1 1 2 6 2 2 2 2 1 0 0 0 0 0 0 0 0 0 0 0 0 0 0 0 0 0 0 0 0 0 0 0 0 0 0 0 0 0 0
10 18 10 7 5 9 1 1 2 1 1 0 1 0 0 0 0 0 0 0 0 0 0 0 0 0 0 0 0 0 0 0 0 0 0 0 0 0 0 0 0 0 0
0 0 0 1 0 0 1 0 0 0 0 2 0 0 0 0 0 0 0 0 0 0 0 0 0 0 0 0 0 0 0 0 0 0 0 0 0 0 0 0 0 0 0
0 0 0 0 0 0 0 0 0 0 0 0 0 0 0 0 0 0 0 0 0 0 0 0 0 0 0 0 0 0 0 0 0 0 0 0 0 0 0 0 0 0 0
0 0 0 0 0 0 0 0 0 0 0 0 0 0 0 0 0 0 0 0 0 0 0 0 0 0 0 0 0 0 0 0 0 0 0 0 0 0 0 0 0 0 0
0 0 0 0 0 0 0 0 0 0 0 0 0 0 0 0 0 0 0 0 0 0 0 0 0 0 0 0 0 0 0 0 0 0 0 0 0 0 0 0 0 0 0